Location: Waco, TX
(31.5480°N, 97.1670°W)
Time: 04:31:34
(UTC-06:00)

ISS - Pass Details

Date: 21 January 2019
Orbit: 404 x 407 km, 51.6° (Epoch: 16 January)

Event Time Altitude Azimuth Distance (km) Brightness Sun altitude
Rises 19:21:59 0° 243° (WSW) 2,310 1.5 -18.8°
Reaches altitude 10° 19:24:10 10° 253° (WSW) 1,455 0.2 -19.3°
Maximum altitude 19:27:10 33° 320° (NW) 701 -2.4 -19.9°
Enters shadow 19:27:52 30° 347° (NNW) 761 -2.5 -20.1°
Drops below altitude 10° 19:30:11 10° 26° (NNE) 1,462 - -20.5°
Sets 19:32:24 0° 37° (NE) 2,325 - -21.0°
